Regional Weather Roundup
Issued by NWS

Home | Current Version | Previous Version | Text Only | Print | Product List | Glossary On
Versions: 1 2 3 4 5 6 7 8 9 10 11 12 13 14 15 16 17 18 19 20 21 22 23 24 25 26 27 28 29 30 31 32 33 34 35 36 37 38 39 40 41 42 43 44 45 46 47 48 49 50
000
ASUS43 KDMX 221306
RWRIA

WEATHER ROUNDUP FOR IOWA
NATIONAL WEATHER SERVICE DES MOINES IA
800 AM CDT MON MAY 22 2017

NOTE: "FAIR" INDICATES FEW OR NO CLOUDS BELOW 12,000 FEET WITH NO
SIGNIFICANT WEATHER AND/OR OBSTRUCTIONS TO VISIBILITY.

* - THESE STATIONS ARE NOT NWS STATIONS...THUS NOT UNDER NWS
QUALITY CONTROL.  THEY ALSO DO NOT REPORT WEATHER SUCH
AS PRECIPITATION OR FOG.

IAZ001>003-012>014-020>022-031>034-043>046-221400-
   NORTHWEST IOWA

CITY           SKY/WX    TMP DP  RH WIND       PRES   REMARKS
CARROLL *      CLOUDY    55  50  82 SW13      29.92S
CHEROKEE *     MOSUNNY   54  49  81 SW5       29.91S
DENISON *      MOSUNNY   55  48  76 SW6       29.94F
LE MARS *      MOSUNNY   55  48  76 W6        29.92F
ORANGE CITY *  MOSUNNY   54  48  82 W8        29.91S
SHELDON *      PTSUNNY   52  46  82 SW5         N/A
SIOUX CITY     SUNNY     56  48  74 NW9       29.93F
SPENCER        CLOUDY    52  47  83 W6        29.90S
STORM LAKE *   SUNNY     54  46  76 SW8       29.91F
$$

IAZ055>058-069>071-079>083-090>094-221400-
   SOUTHWEST IOWA

CITY           SKY/WX    TMP DP  RH WIND       PRES   REMARKS
ATLANTIC *     MOSUNNY   59  50  72 SW14      29.95F
AUDUBON *      MOSUNNY   55  48  76 SW10      29.94F
CLARINDA *     CLOUDY    54  50  87 CALM      30.01F
COUNCIL BLFS * PTSUNNY   57  52  82 SW9       29.96F
CRESTON *      PTSUNNY   55  46  71 SW15      29.99F
HARLAN  *      MOSUNNY   55  52  88 SW12      29.97F
LAMONI         PTSUNNY   56  46  69 S14       30.01F
RED OAK *      CLOUDY    57  52  82 SW8       29.98F
SHENANDOAH *   CLOUDY    57  52  82 SW5       30.00S
$$

IAZ047>049-059>061-072>074-084-221400-
   CENTRAL IOWA

CITY           SKY/WX    TMP DP  RH WIND       PRES   REMARKS
AMES           CLOUDY    54  46  74 S8        29.94F
ANKENY *       PTSUNNY   55  45  67 S8G14     29.96F
BOONE *        CLOUDY    54  46  76 SW13      29.92F
DES MOINES     CLOUDY    58  44  60 S14       29.96F
GRINNELL*      CLOUDY    52  45  76 S12       29.99S
MARSHALLTOWN   CLOUDY    53  46  77 NW10      29.97R
NEWTON *       PTSUNNY   54  46  76 SW13      29.97S
PELLA *        MOSUNNY   56  45  65 S8        29.99F
PERRY *          N/A     56  47  72 SW17      29.93F
$$

IAZ004>006-015-016-023>025-035-036-221400-
   NORTH CENTRAL IOWA

CITY           SKY/WX    TMP DP  RH WIND       PRES   REMARKS
ALGONA *       DRIZZLE   52  48  87 SW6       29.90F
CLARION *      CLOUDY    48  48 100 CALM      29.93S FOG
ESTHERVILLE    CLOUDY    48  46  93 SW7       29.88F
FORT DODGE *   CLOUDY    55  48  76 SW5       29.93S
MASON CITY     LGT RAIN  47  44  90 S7        29.93F
FOREST CITY *    N/A     46  41  81 S5        29.91F
WEBSTER CITY * CLOUDY    52  48  87 S7        29.91F
IOWA FALLS *   LGT RAIN  51  47  85 S9        29.95F
$$

IAZ007>011-017>019-026>030-037>042-050>054-066-221400-
   NORTHEAST IOWA

CITY           SKY/WX    TMP DP  RH WIND       PRES   REMARKS
CEDAR RAPIDS   CLOUDY    50  46  86 SW12      29.98R
CHARLES CITY * CLOUDY    45  45 100 S8        29.94S
CLINTON *      SUNNY     54  47  77 SW10      30.03R
DECORAH *      MOSUNNY   48  45  87 SW5       29.92F
DUBUQUE        MOSUNNY   50  45  83 S12       29.97F
MONTICELLO *   MOSUNNY   50  45  81 S10G16    29.98S
OELWEIN *      CLOUDY    46  46 100 S6        29.97S
WATERLOO       CLOUDY    48  44  86 CALM      29.95S
$$

IAZ064-065-067-068-078-221400-
   EAST CENTRAL IOWA

CITY           SKY/WX    TMP DP  RH WIND       PRES   REMARKS
DAVENPORT      SUNNY     56  46  69 S10       30.02S
IOWA CITY      CLOUDY    53  45  74 S7        30.02S
MT. PLEASANT * SUNNY     54  47  79 SW14      30.03F
MUSCATINE *    SUNNY     55  48  76 S8        30.03S
QUAD CITIES    SUNNY     57  46  66 SW10      30.02F
$$

IAZ062-063-075>077-085>089-095>099-221400-
   SOUTHEAST IOWA

CITY           SKY/WX    TMP DP  RH WIND       PRES   REMARKS
BURLINGTON     SUNNY     56  50  80 SW12      30.04S
FAIRFIELD *    SUNNY     57  46  67 SW13G20   30.02S
FORT MADISON * SUNNY     59  52  77 SW13      30.05F
KEOKUK *       SUNNY     55  50  82 SW12      30.05F
OSKALOOSA *    PTSUNNY   55  46  72 SW15      30.00F
CENTERVILLE *    N/A     57  46  67 S10       30.04F
OTTUMWA        SUNNY     57  47  69 S14       30.01S
WASHINGTON *   SUNNY     54  48  82 SW12G20   30.03R
$$

ABBREVIATIONS USED IN REMARKS
   TC - TEMPERATURES IN CELSIUS
  WCI - WIND CHILL INDEX
   HX - HEAT INDEX
  VSB - VISIBILITY
$$





USA.gov is the U.S. government's official web portal to all federal, state and local government web resources and services.